星链-30225 (STARLINK-30225 )

导读

STARLINK-30225是美国太空探索技术公司SpaceX旗下星链计划的第二代商用通信卫星,由西雅图工厂制造,于2023年7月24日从美国空军东部试验场由猎鹰9火箭发射入轨。该卫星重约730公斤,运行在近地轨道,轨道倾角43度,近地点约560公里、远地点约562公里,轨道周期约96分钟,主要为全球提供商业互联网通信服务。

Basic Information
目录编号:
57449
目录名称:
STARLINK-30225
国际标识:
2023-105V
轨道中心:
EARTH
卫星名称:
星链-30225
卫星全名:
星链-30225 (STARLINK-30225 )
卫星状态:
在轨 (已飞行1060 天)
发射日期:
2023-07-24 UTC
国别 :
美国 (US)
星等 :
--
Orbit Information
数据来源 国际轨道数据
星历时间: 2026-06-18T09:26:48+0800
13小时前
查看轨道信息
半长轴: 6861.204km
偏心率: 0.0001236
轨道倾角: 43.004°
近地点辐角 255.761°
升交点赤经 56.287°
平近点角 104.310°
近地点: 482.218km
远地点: 483.916km
周期: 94.267分钟
每日圈数: 15.275741
Detailed Information
固有亮度:
5
最大亮度:
0.3
卫星平台:
Starlink v2.0 mini
覆盖范围:
全球
运营商:
太空探索技术公司
运营商所在国:
美国
制造商(研发单位):
太空探索技术公司
制造商所在国:
美国
使用方式:
暂无
Satellite Introduction
星链(Starlink)计划是由太空探索技术公司(SpaceX)提出的一个巨型低轨卫星互联网星座项目,计划在2019年至2024年间在太空搭建由约1.2万颗卫星组成的“星链”网络,其中1584颗将部署在地球上空550千米处的近地轨道,并从2020年开始工作。该卫星仍在工作。
2D Orbit Map
3D Orbit Map
Orbit Altitude Analysis Chart
Orbit Inclination Analysis Chart
Orbit Comprehensive Analysis Chart
View Comprehensive Chart